Zurück zum Katalog

STARLINK-36124

AktivKommunikationVLEO
NORAD 67121·PAYLOAD·🇺🇸 United States

Gestartet Dec 15, 2025 von Cape Canaveral Space Force Station

Loading…

Nächste Überflüge (nächste 24 Stunden)

TLE

AktuellSource: CelesTrak SupGP

Epoche: Sep 14, 2026, 22:53 UTC

1 67121C 25299V   26257.95395833 -.00046014  00000+0 -16666-2 0  2571
2 67121  43.0030 180.2527 0001423 264.8642 334.2875 15.27602558    10

Verfolge STARLINK-36124 in Echtzeit mit AllMySat

Download on the App Store